Find Starlink 1277

NORAD ID: 45369 Int'l Des: 2020-019 Owner: SPXS Country: US Constellation: starlink operational
LEOCIRCULAR

現在のビュー

3D地球を読み込み中...

About Starlink 1277

Starlink 1277 (NORAD 45369) is a starlink constellation satellite (v1.0) launched Mar 18, 2020 by SPXS of US. It operates in LEO, CIRCULAR orbit with a mass of 260.00 kg.

次回通過

Passes for default location (London). Set your location on the main map for personalized predictions.

高度履歴

Loading altitude history...

軌道要素

1 45369U 20019K 26263.56694554 .00079716 00000-0 41894-3 0 9991
2 45369 53.0370 275.7094 0004657 33.5762 326.5553 15.80048311360457
Epoch: Sep 20, 2026 • Age: 8 hours

現在のステータス

高度 334.8 km
遠地点 / 近地点 N/A
速度 7.71 km/s
衛星直下点 47.98°N, 73.07°E
打ち上げ日 Mar 18, 2020
運用期間 6.5 years
タイプ internet

技術仕様

分類 Payload
質量 260.00 kg
乾燥質量 248.00 kg
長さ 0.20 m
スパン 9.00 m
形状 ? Box + pan
製造者 SPXS
バスタイプ Starlink
フェーズステータス In Orbit
所有者/国 SPXS/US

Most Searched